TimeMST,TemperatureF,Dew PointF,Humidity,Sea Level PressureIn,VisibilityMPH,Wind Direction,Wind SpeedMPH,Gust SpeedMPH,PrecipitationIn,Events,Conditions,WindDirDegrees,DateUTC
12:57 AM,64.0,21.9,20,30.20,10.0,NNE,5.8,-,N/A,,Overcast,20,2014-01-25 07:57:00
1:57 AM,64.0,21.9,20,30.20,10.0,NNE,5.8,-,N/A,,Overcast,30,2014-01-25 08:57:00
2:57 AM,64.0,23.0,21,30.19,10.0,NE,5.8,-,N/A,,Overcast,40,2014-01-25 09:57:00
3:57 AM,63.0,25.0,24,30.19,10.0,NE,3.5,-,N/A,,Overcast,50,2014-01-25 10:57:00
4:57 AM,63.0,24.1,23,30.17,10.0,NNE,6.9,-,N/A,,Overcast,30,2014-01-25 11:57:00
5:57 AM,63.0,24.1,23,30.19,10.0,Calm,Calm,-,N/A,,Overcast,0,2014-01-25 12:57:00
6:57 AM,63.0,23.0,22,30.19,10.0,Calm,Calm,-,N/A,,Overcast,0,2014-01-25 13:57:00
7:57 AM,62.1,28.9,29,30.20,10.0,Calm,Calm,-,0.00,,Overcast,0,2014-01-25 14:57:00
8:57 AM,64.0,24.1,22,30.20,10.0,NNE,4.6,-,N/A,,Overcast,30,2014-01-25 15:57:00
9:57 AM,66.9,21.9,18,30.21,10.0,NE,6.9,-,N/A,,Overcast,40,2014-01-25 16:57:00
10:57 AM,71.6,21.2,15,30.22,10.0,NE,4.6,-,N/A,,Overcast,40,2014-01-25 17:57:00
11:57 AM,73.9,21.0,14,30.19,10.0,NE,5.8,-,N/A,,Clear,40,2014-01-25 18:57:00
12:57 PM,75.0,21.9,14,30.16,10.0,Calm,Calm,-,N/A,,Clear,0,2014-01-25 19:57:00
1:57 PM,77.0,21.9,13,30.13,10.0,Variable,5.8,-,N/A,,Clear,0,2014-01-25 20:57:00
2:57 PM,78.1,19.0,11,30.11,10.0,North,6.9,-,N/A,,Clear,350,2014-01-25 21:57:00
3:57 PM,78.1,19.0,11,30.09,10.0,Calm,Calm,-,N/A,,Clear,0,2014-01-25 22:57:00
4:57 PM,78.1,19.9,11,30.09,10.0,NNW,4.6,-,N/A,,Clear,330,2014-01-25 23:57:00
5:57 PM,75.0,19.9,13,30.08,10.0,Calm,Calm,-,N/A,,Clear,0,2014-01-26 00:57:00
6:57 PM,71.1,27.0,19,30.09,10.0,Calm,Calm,-,N/A,,Clear,0,2014-01-26 01:57:00
7:57 PM,66.9,27.0,22,30.09,10.0,West,3.5,-,N/A,,Clear,270,2014-01-26 02:57:00
8:57 PM,64.9,28.9,26,30.10,10.0,West,5.8,-,N/A,,Clear,270,2014-01-26 03:57:00
9:57 PM,64.0,30.0,28,30.09,10.0,West,3.5,-,N/A,,Clear,280,2014-01-26 04:57:00
10:57 PM,62.1,28.0,28,30.09,10.0,West,3.5,-,N/A,,Clear,260,2014-01-26 05:57:00
11:57 PM,60.1,28.9,31,30.09,10.0,Calm,Calm,-,N/A,,Clear,0,2014-01-26 06:57:00